TIB1003 SBRJ-SBFI

Flight info

Callsign TIB1003
Flight time 1h 53m
Altitude 30000
Route NAXOP UZ45 UKDAN DCT UMDOR DCT RORIB UZ161 DIDOM
Aircraft E75L/M-SDE3GILORVW/S

Departure

Time 2026-04-29 11:02
Airport Santos Dumont Airport (SBRJ)

Arrival

Time 2026-04-29 12:55
Airport Cataratas International Airport (SBFI)
Time Latitude Longitude Altitude Speed Heading
2026-04-29 10:34 -22.91052 -43.16605 27 ft 0 kts 266°
2026-04-29 10:50 -22.91052 -43.16604 27 ft 1 kts 266°
2026-04-29 10:51 -22.91051 -43.16588 27 ft 1 kts 266°
2026-04-29 10:51 -22.91050 -43.16577 26 ft 2 kts 257°
2026-04-29 10:51 -22.91043 -43.16563 26 ft 2 kts 231°
2026-04-29 10:51 -22.91032 -43.16552 26 ft 2 kts 207°
2026-04-29 10:52 -22.91017 -43.16547 25 ft 2 kts 185°
2026-04-29 10:52 -22.91009 -43.16547 25 ft 1 kts 171°
2026-04-29 10:52 -22.91005 -43.16548 25 ft 0 kts 174°
2026-04-29 10:56 -22.91007 -43.16547 25 ft 0 kts 175°
2026-04-29 10:56 -22.91016 -43.16547 25 ft 1 kts 175°
2026-04-29 10:57 -22.91033 -43.16545 25 ft 2 kts 175°
2026-04-29 10:57 -22.91057 -43.16543 25 ft 4 kts 176°
2026-04-29 10:57 -22.91088 -43.16541 25 ft 4 kts 172°
2026-04-29 10:57 -22.91127 -43.16529 25 ft 6 kts 163°
2026-04-29 10:58 -22.91178 -43.16516 24 ft 8 kts 174°
2026-04-29 10:58 -22.91238 -43.16512 23 ft 9 kts 176°
2026-04-29 10:58 -22.91305 -43.16508 23 ft 9 kts 175°
2026-04-29 10:58 -22.91376 -43.16503 23 ft 8 kts 175°
2026-04-29 10:59 -22.91428 -43.16475 23 ft 9 kts 134°
2026-04-29 10:59 -22.91472 -43.16431 22 ft 0 kts 138°
2026-04-29 10:59 -22.91475 -43.16427 22 ft 1 kts 139°
2026-04-29 10:59 -22.91489 -43.16414 22 ft 3 kts 139°
2026-04-29 11:00 -22.91512 -43.16393 21 ft 5 kts 140°
2026-04-29 11:00 -22.91544 -43.16363 21 ft 6 kts 133°
2026-04-29 11:00 -22.91579 -43.16320 20 ft 8 kts 136°
2026-04-29 11:00 -22.91624 -43.16277 19 ft 7 kts 140°
2026-04-29 11:01 -22.91642 -43.16262 19 ft 2 kts 136°
2026-04-29 11:01 -22.91635 -43.16247 19 ft 3 kts 355°
2026-04-29 11:01 -22.91624 -43.16247 19 ft 0 kts 359°
2026-04-29 11:01 -22.91622 -43.16248 19 ft 0 kts 359°
2026-04-29 11:02 -22.91620 -43.16248 19 ft 6 kts 359°
2026-04-29 11:02 -22.91303 -43.16266 20 ft 80 kts 357°
2026-04-29 11:02 -22.90537 -43.16317 21 ft 137 kts 356°
2026-04-29 11:02 -22.89672 -43.16383 720 ft 113 kts 358°
2026-04-29 11:03 -22.88922 -43.15982 896 ft 141 kts 55°
2026-04-29 11:03 -22.88586 -43.15002 1498 ft 132 kts 73°
2026-04-29 11:03 -22.88491 -43.13959 1708 ft 151 kts 85°
2026-04-29 11:03 -22.88467 -43.12769 1946 ft 167 kts 87°
2026-04-29 11:04 -22.88459 -43.11435 2178 ft 183 kts 87°
2026-04-29 11:04 -22.88462 -43.09958 2237 ft 213 kts 88°
2026-04-29 11:04 -22.88477 -43.08261 2576 ft 229 kts 89°
2026-04-29 11:04 -22.88502 -43.06552 3313 ft 226 kts 91°
2026-04-29 11:05 -22.89050 -43.05022 4098 ft 223 kts 134°
2026-04-29 11:05 -22.90386 -43.04245 4789 ft 222 kts 167°
2026-04-29 11:05 -22.91876 -43.03914 5425 ft 222 kts 168°
2026-04-29 11:05 -22.93417 -43.03724 5983 ft 226 kts 191°
2026-04-29 11:06 -22.94812 -43.04477 6541 ft 227 kts 219°
2026-04-29 11:06 -22.96060 -43.05574 7140 ft 230 kts 220°
2026-04-29 11:06 -22.97291 -43.06665 7705 ft 233 kts 220°
2026-04-29 11:06 -22.98619 -43.07848 7818 ft 260 kts 220°
2026-04-29 11:07 -23.00079 -43.09151 7961 ft 281 kts 220°
2026-04-29 11:07 -23.01622 -43.10531 8017 ft 288 kts 220°
2026-04-29 11:07 -23.03187 -43.11930 8022 ft 292 kts 220°
2026-04-29 11:07 -23.04749 -43.13328 8018 ft 292 kts 220°
2026-04-29 11:08 -23.06321 -43.14735 8020 ft 292 kts 220°
2026-04-29 11:08 -23.07944 -43.16155 8284 ft 304 kts 219°
2026-04-29 11:08 -23.09611 -43.17605 8918 ft 303 kts 219°
2026-04-29 11:08 -23.11242 -43.19026 9586 ft 300 kts 219°
2026-04-29 11:09 -23.12850 -43.20426 10182 ft 300 kts 219°
2026-04-29 11:09 -23.14496 -43.21860 10699 ft 304 kts 220°
2026-04-29 11:09 -23.16174 -43.23323 11115 ft 311 kts 220°
2026-04-29 11:09 -23.17871 -43.24802 11507 ft 319 kts 220°
2026-04-29 11:10 -23.19622 -43.26329 11921 ft 326 kts 220°
2026-04-29 11:10 -23.21418 -43.27896 12361 ft 332 kts 220°
2026-04-29 11:10 -23.23236 -43.29482 12842 ft 336 kts 220°
2026-04-29 11:10 -23.25070 -43.31083 13365 ft 339 kts 220°
2026-04-29 11:11 -23.26907 -43.32687 13912 ft 341 kts 221°
2026-04-29 11:11 -23.28776 -43.34320 14473 ft 342 kts 221°
2026-04-29 11:11 -23.30617 -43.35928 15001 ft 344 kts 221°
2026-04-29 11:11 -23.32484 -43.37596 15498 ft 345 kts 228°
2026-04-29 11:12 -23.33765 -43.39738 15916 ft 340 kts 253°
2026-04-29 11:12 -23.34422 -43.42217 16407 ft 340 kts 258°
2026-04-29 11:12 -23.35017 -43.44682 16893 ft 341 kts 259°
2026-04-29 11:12 -23.35611 -43.47187 17373 ft 341 kts 259°
2026-04-29 11:13 -23.36202 -43.49696 17841 ft 342 kts 259°
2026-04-29 11:13 -23.36790 -43.52203 18245 ft 345 kts 259°
2026-04-29 11:13 -23.37390 -43.54764 18659 ft 347 kts 259°
2026-04-29 11:13 -23.37983 -43.57297 19079 ft 348 kts 259°
2026-04-29 11:14 -23.38582 -43.59854 19500 ft 349 kts 259°
2026-04-29 11:14 -23.39179 -43.62412 19899 ft 350 kts 259°
2026-04-29 11:14 -23.39778 -43.64975 20266 ft 352 kts 259°
2026-04-29 11:14 -23.40382 -43.67563 20649 ft 353 kts 259°
2026-04-29 11:15 -23.40987 -43.70157 21028 ft 354 kts 259°
2026-04-29 11:15 -23.41594 -43.72765 21393 ft 356 kts 259°
2026-04-29 11:15 -23.42198 -43.75358 21774 ft 356 kts 260°
2026-04-29 11:15 -23.42803 -43.77960 22119 ft 357 kts 260°
2026-04-29 11:16 -23.43418 -43.80607 22449 ft 359 kts 260°
2026-04-29 11:16 -23.44025 -43.83219 22776 ft 360 kts 259°
2026-04-29 11:16 -23.44643 -43.85884 23088 ft 361 kts 260°
2026-04-29 11:16 -23.45257 -43.88534 23384 ft 363 kts 260°
2026-04-29 11:17 -23.45870 -43.91180 23652 ft 365 kts 260°
2026-04-29 11:17 -23.46495 -43.93877 23913 ft 367 kts 260°
2026-04-29 11:17 -23.47119 -43.96577 24193 ft 368 kts 260°
2026-04-29 11:17 -23.47743 -43.99279 24469 ft 370 kts 260°
2026-04-29 11:18 -23.48374 -44.02010 24723 ft 372 kts 260°
2026-04-29 11:18 -23.48999 -44.04720 25009 ft 372 kts 260°
2026-04-29 11:18 -23.49630 -44.07459 25269 ft 374 kts 260°
2026-04-29 11:18 -23.50260 -44.10195 25527 ft 375 kts 260°
2026-04-29 11:19 -23.50889 -44.12928 25753 ft 376 kts 260°
2026-04-29 11:19 -23.51529 -44.15713 25998 ft 377 kts 260°
2026-04-29 11:19 -23.52166 -44.18482 26201 ft 379 kts 260°
2026-04-29 11:19 -23.52805 -44.21267 26432 ft 381 kts 260°
2026-04-29 11:20 -23.53443 -44.24048 26668 ft 381 kts 260°
2026-04-29 11:20 -23.54094 -44.26884 26875 ft 383 kts 260°
2026-04-29 11:20 -23.54731 -44.29670 27115 ft 384 kts 260°
2026-04-29 11:20 -23.55383 -44.32516 27367 ft 384 kts 260°
2026-04-29 11:21 -23.56026 -44.35326 27593 ft 385 kts 260°
2026-04-29 11:21 -23.56672 -44.38157 27775 ft 387 kts 260°
2026-04-29 11:21 -23.57324 -44.41010 27984 ft 387 kts 260°
2026-04-29 11:21 -23.57973 -44.43859 28162 ft 389 kts 260°
2026-04-29 11:22 -23.58623 -44.46709 28327 ft 390 kts 260°
2026-04-29 11:22 -23.59276 -44.49580 28519 ft 391 kts 260°
2026-04-29 11:22 -23.59927 -44.52444 28693 ft 392 kts 260°
2026-04-29 11:22 -23.60587 -44.55345 28883 ft 393 kts 260°
2026-04-29 11:23 -23.61237 -44.58210 29041 ft 394 kts 260°
2026-04-29 11:23 -23.61898 -44.61125 29245 ft 395 kts 260°
2026-04-29 11:23 -23.62553 -44.64015 29420 ft 396 kts 260°
2026-04-29 11:23 -23.63214 -44.66935 29620 ft 396 kts 260°
2026-04-29 11:24 -23.63876 -44.69862 29840 ft 396 kts 260°
2026-04-29 11:24 -23.64539 -44.72792 30000 ft 394 kts 261°
2026-04-29 11:24 -23.65192 -44.75689 30025 ft 399 kts 260°
2026-04-29 11:25 -23.66538 -44.81662 30040 ft 409 kts 260°
2026-04-29 11:25 -23.67907 -44.87746 30031 ft 418 kts 260°
2026-04-29 11:26 -23.70006 -44.97095 30025 ft 426 kts 260°
2026-04-29 11:26 -23.71414 -45.03383 30029 ft 426 kts 260°
2026-04-29 11:27 -23.72813 -45.09645 30028 ft 425 kts 260°
2026-04-29 11:27 -23.74213 -45.15920 30026 ft 425 kts 260°
2026-04-29 11:28 -23.75606 -45.22182 30021 ft 427 kts 261°
2026-04-29 11:28 -23.76993 -45.28452 30022 ft 426 kts 260°
2026-04-29 11:29 -23.78382 -45.34751 30038 ft 426 kts 261°
2026-04-29 11:29 -23.79776 -45.41082 30044 ft 424 kts 260°
2026-04-29 11:30 -23.81155 -45.47361 30040 ft 424 kts 261°
2026-04-29 11:30 -23.82529 -45.53627 30049 ft 424 kts 261°
2026-04-29 11:31 -23.83913 -45.59950 30034 ft 424 kts 261°
2026-04-29 11:31 -23.85286 -45.66235 30039 ft 423 kts 261°
2026-04-29 11:32 -23.86660 -45.72514 30033 ft 423 kts 261°
2026-04-29 11:32 -23.88035 -45.78815 30025 ft 423 kts 261°
2026-04-29 11:33 -23.89396 -45.85062 30022 ft 423 kts 261°
2026-04-29 11:33 -23.90760 -45.91334 30011 ft 424 kts 261°
2026-04-29 11:34 -23.92132 -45.97656 30020 ft 422 kts 261°
2026-04-29 11:34 -23.93494 -46.03948 30019 ft 423 kts 261°
2026-04-29 11:35 -23.94847 -46.10213 30027 ft 422 kts 261°
2026-04-29 11:35 -23.96203 -46.16501 30028 ft 422 kts 261°
2026-04-29 11:36 -23.97553 -46.22775 30026 ft 423 kts 261°
2026-04-29 11:36 -23.99618 -46.28853 30030 ft 433 kts 245°
2026-04-29 11:37 -24.02718 -46.34562 30021 ft 434 kts 245°
2026-04-29 11:37 -24.05775 -46.40276 30020 ft 434 kts 245°
2026-04-29 11:38 -24.08824 -46.45989 30024 ft 434 kts 245°
2026-04-29 11:38 -24.11873 -46.51711 30022 ft 432 kts 245°
2026-04-29 11:39 -24.14919 -46.57433 30039 ft 431 kts 245°
2026-04-29 11:39 -24.17950 -46.63133 30039 ft 432 kts 245°
2026-04-29 11:40 -24.20947 -46.68777 30048 ft 432 kts 245°
2026-04-29 11:40 -24.23968 -46.74471 30039 ft 430 kts 246°
2026-04-29 11:41 -24.26990 -46.80174 30043 ft 430 kts 246°
2026-04-29 11:41 -24.29999 -46.85861 30044 ft 431 kts 246°
2026-04-29 11:42 -24.33018 -46.91573 30048 ft 430 kts 246°
2026-04-29 11:42 -24.36033 -46.97282 30037 ft 430 kts 246°
2026-04-29 11:43 -24.39035 -47.02976 30046 ft 430 kts 246°
2026-04-29 11:43 -24.42029 -47.08660 30052 ft 430 kts 246°
2026-04-29 11:44 -24.45025 -47.14354 30044 ft 430 kts 246°
2026-04-29 11:44 -24.47991 -47.19999 30041 ft 429 kts 246°
2026-04-29 11:45 -24.50974 -47.25683 30040 ft 428 kts 246°
2026-04-29 11:45 -24.53953 -47.31366 30044 ft 427 kts 246°
2026-04-29 11:46 -24.56937 -47.37064 30048 ft 428 kts 246°
2026-04-29 11:46 -24.59901 -47.42733 30042 ft 428 kts 246°
2026-04-29 11:47 -24.62879 -47.48433 30041 ft 426 kts 246°
2026-04-29 11:47 -24.65829 -47.54088 30038 ft 426 kts 246°
2026-04-29 11:48 -24.68778 -47.59748 30040 ft 428 kts 246°
2026-04-29 11:48 -24.71748 -47.65454 30046 ft 426 kts 247°
2026-04-29 11:49 -24.74690 -47.71114 30062 ft 426 kts 247°
2026-04-29 11:49 -24.77638 -47.76790 30059 ft 424 kts 247°
2026-04-29 11:50 -24.80570 -47.82444 30062 ft 424 kts 248°
2026-04-29 11:50 -24.83502 -47.88105 30051 ft 424 kts 248°
2026-04-29 11:51 -24.86408 -47.93721 30054 ft 423 kts 248°
2026-04-29 11:51 -24.89343 -47.99400 30059 ft 424 kts 248°
2026-04-29 11:52 -24.92242 -48.05017 30063 ft 422 kts 248°
2026-04-29 11:52 -24.95157 -48.10673 30069 ft 422 kts 248°
2026-04-29 11:53 -24.98059 -48.16307 30080 ft 422 kts 248°
2026-04-29 11:53 -25.00972 -48.21973 30092 ft 422 kts 248°
2026-04-29 11:54 -25.03866 -48.27607 30099 ft 424 kts 248°
2026-04-29 11:54 -25.06767 -48.33261 30102 ft 421 kts 248°
2026-04-29 11:55 -25.09676 -48.38939 30100 ft 422 kts 248°
2026-04-29 11:55 -25.12077 -48.44781 30094 ft 410 kts 261°
2026-04-29 11:56 -25.12980 -48.50920 30087 ft 403 kts 267°
2026-04-29 11:56 -25.13694 -48.57027 30081 ft 402 kts 268°
2026-04-29 11:57 -25.14401 -48.63173 30078 ft 401 kts 268°
2026-04-29 11:57 -25.15101 -48.69294 30085 ft 402 kts 268°
2026-04-29 11:58 -25.15801 -48.75417 30083 ft 401 kts 269°
2026-04-29 11:58 -25.16501 -48.81582 30090 ft 401 kts 268°
2026-04-29 11:59 -25.17191 -48.87672 30103 ft 400 kts 268°
2026-04-29 11:59 -25.17884 -48.93814 30115 ft 400 kts 268°
2026-04-29 12:00 -25.18564 -48.99865 30119 ft 398 kts 268°
2026-04-29 12:00 -25.19248 -49.05983 30126 ft 398 kts 269°
2026-04-29 12:01 -25.19921 -49.12018 30125 ft 400 kts 269°
2026-04-29 12:01 -25.20599 -49.18111 30122 ft 397 kts 268°
2026-04-29 12:02 -25.21270 -49.24180 30125 ft 398 kts 268°
2026-04-29 12:02 -25.21940 -49.30245 30127 ft 397 kts 268°
2026-04-29 12:03 -25.22603 -49.36282 30135 ft 397 kts 268°
2026-04-29 12:03 -25.23266 -49.42343 30134 ft 396 kts 269°
2026-04-29 12:04 -25.23924 -49.48383 30128 ft 395 kts 268°
2026-04-29 12:04 -25.24575 -49.54378 30122 ft 395 kts 268°
2026-04-29 12:05 -25.25228 -49.60405 30122 ft 395 kts 268°
2026-04-29 12:05 -25.25880 -49.66460 30130 ft 396 kts 269°
2026-04-29 12:06 -25.26526 -49.72477 30133 ft 395 kts 269°
2026-04-29 12:06 -25.27169 -49.78491 30140 ft 396 kts 269°
2026-04-29 12:07 -25.27810 -49.84508 30124 ft 396 kts 269°
2026-04-29 12:07 -25.28060 -49.90556 30120 ft 392 kts 273°
2026-04-29 12:08 -25.28165 -49.96537 30119 ft 391 kts 273°
2026-04-29 12:08 -25.28263 -50.02584 30116 ft 392 kts 273°
2026-04-29 12:09 -25.28361 -50.08596 30124 ft 391 kts 274°
2026-04-29 12:09 -25.28457 -50.14607 30107 ft 391 kts 274°
2026-04-29 12:10 -25.28551 -50.20622 30102 ft 391 kts 273°
2026-04-29 12:10 -25.28643 -50.26646 30094 ft 390 kts 274°
2026-04-29 12:11 -25.28730 -50.32617 30091 ft 389 kts 274°
2026-04-29 12:11 -25.28817 -50.38656 30094 ft 390 kts 274°
2026-04-29 12:12 -25.28900 -50.44638 30085 ft 390 kts 274°
2026-04-29 12:12 -25.28981 -50.50613 30087 ft 389 kts 274°
2026-04-29 12:13 -25.29060 -50.56629 30076 ft 390 kts 274°
2026-04-29 12:13 -25.29134 -50.62616 30078 ft 391 kts 274°
2026-04-29 12:14 -25.29205 -50.68611 30078 ft 389 kts 274°
2026-04-29 12:14 -25.29274 -50.74613 30090 ft 391 kts 274°
2026-04-29 12:15 -25.29340 -50.80607 30086 ft 390 kts 274°
2026-04-29 12:15 -25.29403 -50.86614 30087 ft 389 kts 274°
2026-04-29 12:16 -25.29465 -50.92616 30078 ft 390 kts 274°
2026-04-29 12:16 -25.29524 -50.98607 30064 ft 388 kts 274°
2026-04-29 12:17 -25.29580 -51.04572 30065 ft 389 kts 274°
2026-04-29 12:17 -25.29632 -51.10553 30075 ft 390 kts 274°
2026-04-29 12:18 -25.29683 -51.16560 30077 ft 388 kts 274°
2026-04-29 12:18 -25.29730 -51.22559 30092 ft 389 kts 274°
2026-04-29 12:19 -25.29775 -51.28519 30102 ft 390 kts 274°
2026-04-29 12:19 -25.29817 -51.34507 30098 ft 391 kts 274°
2026-04-29 12:20 -25.29857 -51.40528 30090 ft 389 kts 274°
2026-04-29 12:20 -25.29894 -51.46495 30080 ft 390 kts 274°
2026-04-29 12:21 -25.29930 -51.52492 30087 ft 392 kts 275°
2026-04-29 12:21 -25.29961 -51.58507 30086 ft 391 kts 274°
2026-04-29 12:22 -25.29990 -51.64514 30078 ft 393 kts 274°
2026-04-29 12:22 -25.30017 -51.70547 30093 ft 391 kts 275°
2026-04-29 12:23 -25.30041 -51.76591 30094 ft 393 kts 274°
2026-04-29 12:23 -25.30064 -51.82579 30087 ft 392 kts 275°
2026-04-29 12:24 -25.30083 -51.88653 30093 ft 391 kts 275°
2026-04-29 12:24 -25.30100 -51.94652 30084 ft 391 kts 275°
2026-04-29 12:25 -25.30114 -52.00722 30085 ft 392 kts 275°
2026-04-29 12:26 -25.30131 -52.09725 30083 ft 393 kts 274°
2026-04-29 12:26 -25.30140 -52.15756 30080 ft 393 kts 275°
2026-04-29 12:27 -25.30146 -52.21793 30074 ft 391 kts 275°
2026-04-29 12:27 -25.30148 -52.27832 30076 ft 394 kts 274°
2026-04-29 12:28 -25.30146 -52.33921 30065 ft 395 kts 274°
2026-04-29 12:28 -25.30141 -52.39948 30065 ft 394 kts 275°
2026-04-29 12:29 -25.30132 -52.46007 30060 ft 394 kts 275°
2026-04-29 12:29 -25.30122 -52.52094 30055 ft 395 kts 274°
2026-04-29 12:30 -25.30110 -52.58113 30043 ft 396 kts 274°
2026-04-29 12:30 -25.30094 -52.64191 30041 ft 394 kts 274°
2026-04-29 12:31 -25.30076 -52.70228 30049 ft 396 kts 275°
2026-04-29 12:31 -25.30057 -52.76278 30041 ft 391 kts 275°
2026-04-29 12:32 -25.30036 -52.82185 30045 ft 379 kts 276°
2026-04-29 12:32 -25.30010 -52.88048 29987 ft 383 kts 275°
2026-04-29 12:32 -25.29997 -52.91011 29589 ft 385 kts 275°
2026-04-29 12:33 -25.29982 -52.93956 29178 ft 385 kts 276°
2026-04-29 12:33 -25.29966 -52.96898 28753 ft 379 kts 275°
2026-04-29 12:33 -25.29951 -52.99787 28325 ft 376 kts 275°
2026-04-29 12:33 -25.29934 -53.02628 27922 ft 372 kts 275°
2026-04-29 12:34 -25.29917 -53.05473 27506 ft 374 kts 276°
2026-04-29 12:34 -25.29899 -53.08358 27100 ft 371 kts 276°
2026-04-29 12:34 -25.29881 -53.11199 26685 ft 368 kts 275°
2026-04-29 12:34 -25.29863 -53.13986 26286 ft 363 kts 275°
2026-04-29 12:35 -25.29844 -53.16766 25893 ft 360 kts 275°
2026-04-29 12:35 -25.29885 -53.19495 25517 ft 359 kts 271°
2026-04-29 12:35 -25.30082 -53.22282 25119 ft 359 kts 271°
2026-04-29 12:35 -25.30265 -53.24983 24729 ft 358 kts 271°
2026-04-29 12:36 -25.30452 -53.27753 24334 ft 357 kts 271°
2026-04-29 12:36 -25.30632 -53.30436 23942 ft 352 kts 271°
2026-04-29 12:36 -25.30811 -53.33139 23555 ft 349 kts 271°
2026-04-29 12:36 -25.30990 -53.35816 23161 ft 348 kts 271°
2026-04-29 12:37 -25.31162 -53.38429 22774 ft 347 kts 271°
2026-04-29 12:37 -25.31338 -53.41105 22394 ft 344 kts 271°
2026-04-29 12:37 -25.31511 -53.43724 22015 ft 344 kts 271°
2026-04-29 12:37 -25.31683 -53.46349 21634 ft 343 kts 271°
2026-04-29 12:38 -25.31854 -53.48954 21252 ft 338 kts 271°
2026-04-29 12:38 -25.32023 -53.51551 20878 ft 336 kts 271°
2026-04-29 12:38 -25.32191 -53.54129 20504 ft 337 kts 272°
2026-04-29 12:38 -25.32355 -53.56686 20135 ft 335 kts 271°
2026-04-29 12:39 -25.32522 -53.59253 19761 ft 334 kts 271°
2026-04-29 12:39 -25.32689 -53.61843 19383 ft 332 kts 271°
2026-04-29 12:39 -25.32851 -53.64346 19027 ft 329 kts 271°
2026-04-29 12:39 -25.33012 -53.66861 18684 ft 330 kts 271°
2026-04-29 12:40 -25.33175 -53.69407 18314 ft 328 kts 271°
2026-04-29 12:40 -25.33333 -53.71888 17958 ft 327 kts 271°
2026-04-29 12:40 -25.33493 -53.74388 17600 ft 324 kts 271°
2026-04-29 12:40 -25.33648 -53.76848 17237 ft 323 kts 271°
2026-04-29 12:41 -25.33807 -53.79347 16886 ft 324 kts 271°
2026-04-29 12:41 -25.33962 -53.81790 16525 ft 322 kts 271°
2026-04-29 12:41 -25.34117 -53.84257 16175 ft 319 kts 271°
2026-04-29 12:41 -25.34270 -53.86705 15813 ft 320 kts 271°
2026-04-29 12:42 -25.34424 -53.89153 15451 ft 319 kts 271°
2026-04-29 12:42 -25.34577 -53.91590 15105 ft 318 kts 271°
2026-04-29 12:42 -25.34728 -53.94038 14761 ft 319 kts 271°
2026-04-29 12:42 -25.34879 -53.96458 14403 ft 317 kts 271°
2026-04-29 12:43 -25.35029 -53.98872 14052 ft 316 kts 271°
2026-04-29 12:43 -25.35180 -54.01311 13694 ft 316 kts 271°
2026-04-29 12:43 -25.35327 -54.03709 13344 ft 315 kts 271°
2026-04-29 12:43 -25.35476 -54.06117 13006 ft 313 kts 271°
2026-04-29 12:44 -25.35623 -54.08530 12652 ft 314 kts 271°
2026-04-29 12:44 -25.35769 -54.10907 12301 ft 311 kts 271°
2026-04-29 12:44 -25.35914 -54.13279 11954 ft 309 kts 271°
2026-04-29 12:44 -25.36059 -54.15659 11613 ft 305 kts 271°
2026-04-29 12:45 -25.36200 -54.17977 11278 ft 301 kts 271°
2026-04-29 12:45 -25.36339 -54.20259 10944 ft 293 kts 271°
2026-04-29 12:45 -25.36473 -54.22478 10626 ft 286 kts 271°
2026-04-29 12:45 -25.36602 -54.24633 10316 ft 279 kts 271°
2026-04-29 12:46 -25.36729 -54.26736 10022 ft 271 kts 271°
2026-04-29 12:46 -25.36852 -54.28793 9719 ft 267 kts 271°
2026-04-29 12:46 -25.36974 -54.30831 9422 ft 266 kts 271°
2026-04-29 12:46 -25.37095 -54.32872 9135 ft 267 kts 271°
2026-04-29 12:47 -25.37215 -54.34891 8847 ft 266 kts 271°
2026-04-29 12:47 -25.37336 -54.36934 8554 ft 264 kts 271°
2026-04-29 12:47 -25.37456 -54.38954 8258 ft 264 kts 271°
2026-04-29 12:47 -25.37576 -54.40979 7965 ft 264 kts 271°
2026-04-29 12:48 -25.37695 -54.43003 7683 ft 264 kts 271°
2026-04-29 12:48 -25.37814 -54.45015 7383 ft 262 kts 271°
2026-04-29 12:48 -25.37933 -54.47042 7084 ft 262 kts 271°
2026-04-29 12:48 -25.38049 -54.49027 6800 ft 262 kts 271°
2026-04-29 12:49 -25.38167 -54.51054 6506 ft 262 kts 270°
2026-04-29 12:49 -25.38285 -54.53067 6213 ft 261 kts 271°
2026-04-29 12:49 -25.38400 -54.55037 5919 ft 252 kts 271°
2026-04-29 12:49 -25.38510 -54.56917 5639 ft 242 kts 270°
2026-04-29 12:50 -25.38761 -54.58712 5357 ft 240 kts 249°
2026-04-29 12:50 -25.39906 -54.60052 5151 ft 242 kts 210°
2026-04-29 12:50 -25.41436 -54.60756 4902 ft 237 kts 205°
2026-04-29 12:50 -25.42978 -54.61413 4625 ft 233 kts 205°
2026-04-29 12:51 -25.44501 -54.62053 4366 ft 229 kts 205°
2026-04-29 12:51 -25.45994 -54.62678 4118 ft 227 kts 204°
2026-04-29 12:51 -25.47520 -54.63038 3867 ft 230 kts 171°
2026-04-29 12:51 -25.48894 -54.62317 3667 ft 211 kts 133°
2026-04-29 12:52 -25.49829 -54.61167 3469 ft 187 kts 128°
2026-04-29 12:52 -25.50652 -54.60120 3124 ft 174 kts 127°
2026-04-29 12:52 -25.51424 -54.59135 2837 ft 160 kts 128°
2026-04-29 12:52 -25.52128 -54.58246 2605 ft 148 kts 128°
2026-04-29 12:53 -25.52792 -54.57396 2407 ft 140 kts 128°
2026-04-29 12:53 -25.53436 -54.56579 2237 ft 140 kts 128°
2026-04-29 12:53 -25.54089 -54.55743 2058 ft 142 kts 129°
2026-04-29 12:53 -25.54728 -54.54929 1876 ft 139 kts 129°
2026-04-29 12:54 -25.55372 -54.54110 1684 ft 138 kts 130°
2026-04-29 12:54 -25.56003 -54.53309 1500 ft 136 kts 130°
2026-04-29 12:54 -25.56629 -54.52507 1315 ft 135 kts 130°
2026-04-29 12:54 -25.57241 -54.51730 1138 ft 134 kts 131°
2026-04-29 12:55 -25.57861 -54.50939 960 ft 133 kts 131°
2026-04-29 12:55 -25.58468 -54.50170 762 ft 132 kts 133°
2026-04-29 12:55 -25.59041 -54.49429 728 ft 116 kts 132°
2026-04-29 12:55 -25.59324 -54.49065 755 ft 28 kts 132°
2026-04-29 12:56 -25.59422 -54.48945 762 ft 17 kts 130°
2026-04-29 12:56 -25.59468 -54.48886 765 ft 4 kts 153°
2026-04-29 12:56 -25.59497 -54.48897 766 ft 5 kts 211°
2026-04-29 12:56 -25.59533 -54.48925 765 ft 7 kts 216°
2026-04-29 12:57 -25.59571 -54.48935 766 ft 3 kts 118°
2026-04-29 12:57 -25.59580 -54.48913 767 ft 2 kts 119°
2026-04-29 12:57 -25.59591 -54.48893 768 ft 3 kts 125°
2026-04-29 12:57 -25.59616 -54.48887 768 ft 4 kts 213°
2026-04-29 12:58 -25.59637 -54.48906 769 ft 3 kts 220°
2026-04-29 12:58 -25.59649 -54.48917 769 ft 0 kts 220°